W7BDB Weather Reports


time (UTC)temp
C
wind
direction
speed
KPH
gust
KPH
rain 1hr
cm
rain 24hr
cm
rain mn
cm
humidity
%
barometer
mb
20260505190524 15 36 0.0 4.8 0.00 0.00 0.00 55 1021.5
20260505185024 15 45 1.6 6.4 0.00 0.00 0.00 55 1021.5
20260505183526 15 8 4.8 4.8 0.00 0.00 0.00 55 1021.5
20260505180451 15 161 0.0 3.2 0.00 0.00 0.00 55 1021.5
20260505174951 14 248 1.6 6.4 0.00 0.00 0.00 55 1021.2
20260505173450 15 70 0.0 4.8 0.00 0.00 0.00 55 1021.2
20260505171947 14 275 1.6 4.8 0.00 0.00 0.00 55 1021.2
20260505170432 14 275 3.2 4.8 0.00 0.00 0.00 55 1020.9
20260505164933 13 315 1.6 4.8 0.00 0.00 0.00 55 1020.9
20260505163432 13 286 4.8 4.8 0.00 0.00 0.00 55 1021.2
20260505161913 13 242 3.2 6.4 0.00 0.00 0.00 55 1020.9
20260505160352 13 232 3.2 4.8 0.00 0.00 0.00 55 1020.9
20260505153335 12 267 3.2 4.8 0.00 0.00 0.00 55 1020.5
20260505151809 12 151 3.2 4.8 0.00 0.00 0.00 55 1020.9
20260505140223 12 237 1.6 4.8 0.00 0.00 0.00 55 1019.8
20260505130223 12 190 0.0 4.8 0.00 0.00 0.00 55 1019.5
20260505124651 12 227 1.6 3.2 0.00 0.00 0.00 55 1019.5
20260505123131 12 194 1.6 4.8 0.00 0.00 0.00 55 1019.5
20260505121624 12 233 3.2 6.4 0.00 0.00 0.00 55 1019.5
20260505120113 12 163 1.6 11.3 0.00 0.00 0.00 55 1019.5
20260505114604 12 187 0.0 9.7 0.00 0.00 0.00 55 1019.2
20260505113053 12 233 6.4 11.3 0.00 0.00 0.00 55 1019.5
20260505111537 12 213 3.2 4.8 0.00 0.00 0.00 55 1019.2
20260505101443 12 191 1.6 9.7 0.00 0.00 0.00 55 1019.2
20260505095926 11 229 3.2 9.7 0.00 0.00 0.00 55 1018.8
20260505091423 11 222 3.2 4.8 0.00 0.00 0.00 55 1018.8
20260505085918 11 192 1.6 4.8 0.00 0.00 0.00 55 1018.5
20260505084414 11 223 3.2 4.8 0.00 0.00 0.00 55 1018.5
20260505082857 11 229 1.6 6.4 0.00 0.00 0.00 55 1018.8
20260505081336 11 231 3.2 11.3 0.00 0.00 0.00 55 1018.5
20260505071323 11 230 4.8 9.7 0.00 0.00 0.00 55 1018.2
20260505065823 12 236 6.4 11.3 0.00 0.00 0.00 55 1018.2
20260505064324 12 231 8.0 11.3 0.00 0.00 0.00 55 1017.8
20260505061244 12 222 4.8 6.4 0.00 0.00 0.00 55 1017.5
20260505055744 12 243 4.8 9.7 0.00 0.00 0.00 55 1017.8
20260505054245 12 247 8.0 12.9 0.00 0.00 0.00 55 1017.5
20260505052745 12 241 6.4 24.1 0.00 0.00 0.00 55 1017.5
20260505051225 12 251 14.5 22.5 0.00 0.00 0.00 55 1017.5
20260505041130 13 235 9.7 24.1 0.00 0.00 0.00 55 1016.5
20260505035631 13 231 14.5 22.5 0.00 0.00 0.00 55 1016.5
20260505034129 14 258 14.5 22.5 0.00 0.00 0.00 55 1016.1
20260505032630 15 289 9.7 22.5 0.00 0.00 0.00 55 1016.1
20260505025610 16 228 12.9 17.7 0.00 0.00 0.00 55 1015.8
20260505024056 17 276 11.3 24.1 0.00 0.00 0.00 55 1015.4
20260505022537 18 205 11.3 24.1 0.00 0.00 0.00 55 1015.4
20260505021022 18 232 11.3 17.7 0.00 0.00 0.00 55 1015.4
20260505015516 19 264 14.5 24.1 0.00 0.00 0.00 55 1015.4
20260505013948 20 282 6.4 22.5 0.00 0.00 0.00 55 1015.4
20260505012449 20 262 14.5 20.9 0.00 0.00 0.00 55 1015.8
20260505010948 21 268 12.9 17.7 0.00 0.00 0.00 55 1015.8
20260505005448 22 276 12.9 17.7 0.00 0.00 0.00 55 1015.8
20260505003944 23 254 6.4 16.1 0.00 0.00 0.00 55 1015.8
20260505002441 23 274 9.7 14.5 0.00 0.00 0.00 55 1015.8
20260505000922 22 241 9.7 17.7 0.00 0.00 0.00 55 1015.8
20260504235350 22 222 11.3 14.5 0.00 0.00 0.00 55 1016.1
20260504232348 23 267 4.8 16.1 0.00 0.00 0.00 55 1015.8
20260504230817 23 247 6.4 12.9 0.00 0.00 0.00 55 1016.1
20260504223817 23 214 6.4 11.3 0.00 0.00 0.00 55 1016.5
20260504222311 22 234 9.7 14.5 0.00 0.00 0.00 55 1016.8
20260504220810 21 147 4.8 11.3 0.00 0.00 0.00 55 1016.8
20260504215252 21 152 3.2 12.9 0.00 0.00 0.00 55 1016.8
20260504213736 21 168 3.2 12.9 0.00 0.00 0.00 55 1016.8
20260504210714 20 110 4.8 11.3 0.00 0.00 0.00 55 1017.1
20260504205150 20 233 6.4 12.9 0.00 0.00 0.00 55 1017.5
20260504203648 20 164 4.8 14.5 0.00 0.00 0.00 55 1017.8
20260504200621 18 134 4.8 16.1 0.00 0.00 0.00 55 1018.2
20260504195051 20 153 4.8 17.7 0.00 0.00 0.00 55 1018.2